Regional Weather Roundup
Issued by NWS

Home | Current Version | Previous Version | Graphics & Text | Print | Product List | Glossary On
Versions: 1 2 3 4 5 6 7 8 9 10 11 12 13 14 15 16 17 18 19 20 21 22 23 24 25 26 27 28 29 30 31 32 33 34 35 36 37 38 39 40 41 42 43 44 45 46 47 48 49 50
000
ASUS45 KTFX 042110
RWRMT
MONTANA REGIONAL WEATHER ROUNDUP
NATIONAL WEATHER SERVICE GREAT FALLS MT
300 PM MDT TUE AUG 04 2015

NOTE: "FAIR" INDICATES FEW OR NO CLOUDS BELOW 12000 FEET WITH NO
SIGNIFICANT WEATHER AND/OR OBSTRUCTIONS TO VISIBILITY.

MTZ001>007-043-042200-
WEST OF THE DIVIDE

CITY           SKY/WX    TMP DP  RH WIND       PRES   REMARKS
KALISPELL      PTCLDY    83  45  26 VRB6      29.91F
MISSOULA       MOSUNNY   84  41  21 VRB5      29.94F
BUTTE          CLOUDY    75  41  29 NW12      30.06S
MULLAN PASS    PTSUNNY   67  41  38 VRB5      30.12F
DEER LODGE       N/A     79  43  27 NW3       30.04F
EUREKA           N/A     86  43  22 S9        29.87F
HAMILTON         N/A     82  41  23 E6        29.97F
LIBBY            N/A     88  39  18 SW10G17   29.87F
PLAINS           N/A     87  44  22 W5        29.91F
RONAN            N/A     84  45  25 S10       29.98F
$$

MTZ008-052>055-042200-
SOUTHWEST MONTANA

CITY           SKY/WX    TMP DP  RH WIND       PRES   REMARKS
BOZEMAN        PTSUNNY   82  46  28 VRB6      29.99F
DILLON         MOSUNNY   76  47  35 W10       30.02S
W YELLOWSTONE  MOSUNNY   72  46  40 SW10G22   30.17F
$$

MTZ009-010-012-014-046-048-049-054-042200-
EAST SLOPES AND CENTRAL MONTANA

CITY           SKY/WX    TMP DP  RH WIND       PRES   REMARKS
CUT BANK       CLOUDY    79  44  28 N10       29.94S
GREAT FALLS    PTSUNNY   85  41  21 MISG      29.92F
MALMSTROM AFB  CLOUDY    82  44  26 SE12      29.92F
HELENA         CLOUDY    78  47  33 S18G25    29.94R
CONRAD           N/A     82  48  30 CALM      29.97F
$$

MTZ011-013-016-021-045-047-050-051-042200-
NORTH CENTRAL MONTANA

CITY           SKY/WX    TMP DP  RH WIND       PRES   REMARKS
HAVRE          CLOUDY    80  55  42 S10       29.90R
LEWISTOWN      LGT RAIN  67  58  72 SE12      30.05F
CHINOOK          N/A     79  57  47 S6        29.91R
FORT BENTON      N/A     81  52  36 SE13G21   29.92F
$$

MTZ017>020-022>027-061-062-042200-
NORTHEAST MONTANA

CITY           SKY/WX    TMP DP  RH WIND       PRES   REMARKS
GLASGOW        MOSUNNY   93  52  24 S16G25    29.82F HX  90
JORDAN           N/A     89  52  28 SW28G33   29.85S
SIDNEY         SUNNY    N/A N/A N/A SE12G20   29.87F
WOLF POINT     MOSUNNY   94  52  24 SE8       29.83F HX  91
MALTA            N/A     84  58  41 SW9       29.83F
POPLAR           N/A     91  54  27 SE14      29.86S
$$

MTZ028>42-056>058-042200-
SOUTHCENTRAL AND SOUTHEAST MONTANA

CITY           SKY/WX    TMP DP  RH WIND       PRES   REMARKS
BAKER          MOSUNNY   89  53  29 SE21      29.93S
BILLINGS       LGT RAIN  73  57  57 NW17      30.02F
LIVINGSTON     SUNNY     80  50  34 E20G28    29.99F
MILES CITY     CLOUDY    84  53  34 W26G32    29.86R
EKALAKA          N/A     87  52  30 E17       29.93S
FORSYTH          N/A     77  55  47 W13G20    29.91R
LAUREL           N/A     71  55  56 W7        30.00F
$$

REGIONAL REPORTS...DAKOTAS

CITY           SKY/WX    TMP DP  RH WIND       PRES   REMARKS
WILLISTON      MOSUNNY   89  52  28 SE13      29.91F
MINOT          SUNNY     83  47  28 SE12G17   29.96S
DICKINSON      SUNNY     85  54  34 S14G24    29.94S
CROSBY         FAIR      84  50  30 SE14G22   29.95S
BISMARCK       SUNNY     86  53  32 S6        29.96S
GRAND FORKS    MOSUNNY   77  55  46 N8        30.00S
FARGO          SUNNY     81  51  35 N10       29.99S
BUFFALO SD       N/A     85  58  39 SE22G29   29.88S
RAPID CITY     PTSUNNY   84  62  47 SE15      29.95F
$$

REGIONAL REPORTS...WYOMING/IDAHO/WASHINGTON

CITY           SKY/WX    TMP DP  RH WIND       PRES   REMARKS
GILLETTE       MOSUNNY   82  52  35 SE5       29.97S
SHERIDAN       LGT RAIN  71  58  63 W10       30.03R
BUFFALO WY     LGT RAIN  68  54  60 W12       30.07R
CODY           MOSUNNY   70  57  64 N15       30.09F
YELLOWSTONE LA   N/A     67  44  43 W8        30.26F
IDAHO FALLS    MOSUNNY   83  45  26 S9        30.06F
SALMON         MOSUNNY   82  45  26 N13       29.93F
BOISE          SUNNY     89  47  23 N8        29.94F
SPOKANE        MOSUNNY   83  41  22 S14G24    29.91F
$$

REGIONAL REPORTS...ALBERTA

CITY           SKY/WX    TMP DP  RH WIND       PRES   REMARKS
EDMONTON       CLOUDY    64  57  77 N9        29.90F
CALGARY        PTSUNNY   72  52  49 E9G17     29.92S
LETHBRIDGE     PTSUNNY   81  48  32 E7        29.89F
MEDICINE HAT   PTSUNNY   84  54  34 W6        29.84F
WATERTON GATE    N/A     79  46  31 S13G21      N/A
CARDSTON         N/A     79  48  34 SE3         N/A
MILK RIVER       N/A     79  48  34 N5          N/A
$$

REGIONAL REPORTS...SASKATCHEWAN

CITY           SKY/WX    TMP DP  RH WIND       PRES   REMARKS
SWIFT CURRENT  MOSUNNY   81  63  54 SE15G25   29.84S
REGINA         PTSUNNY   82  52  34 SE16G23   29.92F
SASKATOON      PTSUNNY   79  55  44 SE25G35   29.89F
CYPRESS HILLS    N/A     66  54  63 W3          N/A
VAL MARIE        N/A     73  59  60 W10         N/A
ROCKGLEN         N/A     84  54  34 SE18G25     N/A
$$


USA.gov is the U.S. government's official web portal to all federal, state and local government web resources and services.